Вернуться в каталог

STARLINK-32811

АктивенСвязьVLEO
NORAD 63039·PAYLOAD·🇺🇸 United States

Запущен Feb 18, 2025 с Cape Canaveral Space Force Station

Loading…

Ближайшие Пролёты (ближайшие 24 часа)

TLE

СвежийSource: CelesTrak SupGP

Эпоха: Sep 15, 2026, 02:45 UTC

1 63039C 25034L   26258.11506944 -.00006702  00000+0 -19809-3 0  2582
2 63039  53.1564  95.1801 0001157  86.3928 221.1663 15.34383203    15

Отслеживайте STARLINK-32811 в реальном времени с AllMySat

Download on the App Store